Location: Hilton Head Island
(32.2163°N, 80.7526°W)
Time: 17:08:08
(UTC-05:00)

S-56A Canister/Altair - All Passes

Search period start: 17 February 2026 00:00
Search period end: 27 February 2026 00:00
Orbit: 632 x 2485 km, 38.9° (Epoch: 17 February)

Date Brightness Start Highest point End Pass type
(mag) Time Alt. Az. Time Alt. Az. Time Alt. Az.
17 Feb - 00:05:05 10° WSW 00:10:34 73° NNW 00:18:46 10° ENE night (unlit)
17 Feb - 02:08:48 10° WNW 02:15:43 55° N 02:26:16 10° E visible
17 Feb - 04:12:29 10° WNW 04:21:29 81° NNE 04:34:54 10° ESE visible
17 Feb - 06:16:42 10° WNW 06:27:15 52° SW 06:41:09 10° SE visible
17 Feb - 08:24:43 10° W 08:32:42 18° SW 08:41:27 10° S daylight
17 Feb - 21:29:04 10° S 21:32:38 22° SE 21:36:49 10° E night (unlit)
17 Feb - 23:30:29 10° WSW 23:35:38 81° NNW 23:43:08 10° ENE night (unlit)
18 Feb - 01:34:07 10° WNW 01:40:29 53° N 01:50:09 10° ENE visible
18 Feb - 03:37:43 10° WNW 03:46:02 75° NNE 03:58:42 10° ESE visible
18 Feb - 05:41:38 10° WNW 05:51:41 58° SSW 06:05:29 10° SE visible
18 Feb - 07:48:32 10° W 07:57:10 22° SW 08:07:01 10° S daylight
18 Feb - 20:55:14 10° S 20:58:01 16° SE 21:01:04 10° E night (unlit)
18 Feb - 22:55:56 10° WSW 23:00:47 88° SSE 23:07:36 10° ENE night (unlit)
19 Feb - 00:59:26 10° WNW 01:05:19 52° N 01:14:08 10° ENE visible
19 Feb - 03:03:00 10° WNW 03:10:41 69° NNE 03:22:30 10° E visible
19 Feb - 05:06:40 10° WNW 05:16:09 63° SSW 05:29:42 10° SE visible
19 Feb - 07:12:43 10° W 07:21:38 25° SW 07:32:16 10° S daylight
19 Feb - 20:22:00 10° SSE 20:23:23 11° SE 20:24:48 10° ESE visible
19 Feb - 22:21:23 10° WSW 22:26:01 75° SSE 22:32:12 10° ENE night (unlit)
20 Feb - 00:24:47 10° W 00:30:14 51° N 00:38:15 10° ENE night (unlit)
20 Feb - 02:28:20 10° WNW 02:35:25 64° NNE 02:46:18 10° E visible
20 Feb - 04:31:48 10° WNW 04:40:42 69° SSW 04:53:50 10° SE visible
20 Feb - 06:37:09 10° W 06:46:07 28° SW 06:57:16 10° SSE visible
20 Feb - 21:46:52 10° SW 21:51:18 60° SSE 21:56:53 10° ENE night (unlit)
20 Feb - 23:50:07 10° W 23:55:13 52° N 00:02:31 10° ENE night (unlit)
21 Feb - 01:53:41 10° WNW 02:00:12 58° NNE 02:10:10 10° E visible
21 Feb - 03:57:01 10° WNW 04:05:19 76° SSW 04:17:54 10° SE visible
21 Feb - 06:01:47 10° W 06:10:38 32° SW 06:22:05 10° SSE visible
21 Feb - 21:12:23 10° SW 21:16:38 47° SSE 21:21:39 10° ENE visible
21 Feb - 23:15:28 10° W 23:20:16 53° N 23:26:56 10° ENE night (unlit)
22 Feb - 01:19:05 10° WNW 01:25:04 54° N 01:34:05 10° E visible
22 Feb - 03:22:17 10° WNW 03:30:00 83° SSW 03:41:55 10° ESE visible
22 Feb - 05:26:36 10° W 05:35:11 35° SW 05:46:45 10° SSE visible
22 Feb - 20:37:55 10° SSW 20:41:59 36° SE 20:46:28 10° ENE visible
22 Feb - 22:40:48 10° W 22:45:23 57° NNW 22:51:29 10° ENE night (unlit)
23 Feb - 00:44:28 10° WNW 00:49:59 50° N 00:58:08 10° E night (unlit)
23 Feb - 02:47:37 10° WNW 02:54:47 89° NNE 03:05:56 10° ESE visible
23 Feb - 04:51:34 10° W 04:59:47 39° SW 05:11:17 10° SSE visible
23 Feb - 07:02:19 10° WSW 07:05:04 11° SW 07:07:59 10° SSW daylight
23 Feb - 20:03:30 10° SSW 20:07:21 28° SE 20:11:19 10° E visible
23 Feb - 22:06:06 10° W 22:10:34 62° NNW 22:16:11 10° ENE night (unlit)
24 Feb - 00:09:51 10° WNW 00:14:58 46° N 00:22:16 10° ENE night (unlit)
24 Feb - 02:13:01 10° WNW 02:19:37 81° NNE 02:29:56 10° ESE visible
24 Feb - 04:16:38 10° WNW 04:24:27 43° SSW 04:35:44 10° SSE visible
24 Feb - 06:25:02 10° WSW 06:29:40 13° SW 06:34:50 10° SSW visible
24 Feb - 19:29:07 10° SSW 19:32:41 22° SE 19:36:10 10° E visible
24 Feb - 21:31:22 10° WSW 21:35:47 71° NNW 21:41:01 10° ENE visible
24 Feb - 23:35:14 10° WNW 23:40:00 43° N 23:46:33 10° ENE night (unlit)
25 Feb - 01:38:25 10° WNW 01:44:33 73° NNE 01:53:58 10° ESE visible
25 Feb - 03:41:47 10° WNW 03:49:10 48° SSW 04:00:06 10° SE visible
25 Feb - 05:48:48 10° WSW 05:54:16 16° SW 06:00:41 10° S visible
25 Feb - 18:54:50 10° S 18:57:59 18° SE 19:00:58 10° E visible
25 Feb - 20:56:38 10° WSW 21:01:03 83° NNW 21:05:58 10° ENE visible
25 Feb - 23:00:34 10° WNW 23:05:04 42° N 23:11:00 10° ENE night (unlit)
26 Feb - 01:03:51 10° WNW 01:09:32 65° NNE 01:18:04 10° E night (unlit)
26 Feb - 03:07:02 10° WNW 03:13:58 53° SSW 03:24:26 10° SE visible
26 Feb - 05:13:04 10° WSW 05:18:56 18° SW 05:26:06 10° S visible
26 Feb - 18:20:41 10° S 18:23:15 14° SE 18:25:40 10° ESE daylight
26 Feb - 20:21:51 10° WSW 20:26:21 82° SSE 20:31:00 10° ENE visible
26 Feb - 22:25:52 10° WNW 22:30:11 41° N 22:35:35 10° ENE night (unlit)
